Regional Weather Roundup
Issued by NWS

Home | Current Version | Previous Version | Graphics & Text | Print | Product List | Glossary On
Versions: 1 2 3 4 5 6 7 8 9 10 11 12 13 14 15 16 17 18 19 20 21 22 23 24 25 26 27 28 29 30 31 32 33 34 35 36 37 38 39 40 41 42 43 44 45 46 47 48 49 50
942
ASUS43 KDMX 090108
RWRIA

WEATHER ROUNDUP FOR IOWA
NATIONAL WEATHER SERVICE DES MOINES IA
700 PM CST MON FEB 08 2016

NOTE: "FAIR" INDICATES FEW OR NO CLOUDS BELOW 12,000 FEET WITH NO
SIGNIFICANT WEATHER AND/OR OBSTRUCTIONS TO VISIBILITY.

* - THESE STATIONS ARE NOT NWS STATIONS...THUS NOT UNDER NWS
QUALITY CONTROL.  THEY ALSO DO NOT REPORT WEATHER SUCH
AS PRECIPITATION OR FOG.

IAZ001>003-012>014-020>022-031>034-043>046-090200-
   NORTHWEST IOWA

CITY           SKY/WX    TMP DP  RH WIND       PRES   REMARKS
CARROLL *      MOCLDY    18  12  79 NW21      30.04F WCI   1
CHEROKEE *     PTCLDY    18  14  86 N13       30.08S WCI   4
DENISON *      CLEAR     18  16  93 N9        30.05S WCI   6
LE MARS *      CLEAR     25  19  80 N10       30.12R WCI  15
ORANGE CITY *  CLEAR     21  16  79 N10G18    30.08R WCI  10
SHELDON *      MOCLDY    16  14  93 N16       30.06S WCI   0
SIOUX CITY     MOCLDY    28  17  63 N17       30.10S WCI  16
SPENCER        MIX PCPN  15   9  76 N26G33    30.05S WCI  -4
STORM LAKE *   MOCLDY    18  12  79 N23G29    30.04F WCI   0
$$

IAZ055>058-069>071-079>083-090>094-090200-
   SOUTHWEST IOWA

CITY           SKY/WX    TMP DP  RH WIND       PRES   REMARKS
ATLANTIC *     PTCLDY    19  14  79 N10       30.07F WCI   8
AUDUBON *      PTCLDY    19  12  73 N13G20    30.05F WCI   7
CLARINDA *     CLEAR     25  16  68 N14       30.11S WCI  13
COUNCIL BLFS * CLEAR     27  18  69 NW16G26   30.08S WCI  14
CRESTON *      MOCLDY    19  12  73 NW21G31   30.05R WCI   3
HARLAN  *      CLEAR     21  16  79 N16       30.10F WCI   7
LAMONI         FLURRIES  21  13  71 NW21G29   30.03F WCI   5
RED OAK *      MOCLDY    23  18  80 N9        30.10R WCI  13
SHENANDOAH *   CLEAR     27  19  74 NW9       30.11S WCI  17
$$

IAZ047>049-059>061-072>074-084-090200-
   CENTRAL IOWA

CITY           SKY/WX    TMP DP  RH WIND       PRES   REMARKS
AMES           CLOUDY    18  10  71 N30G40    30.01S WCI  -1
ANKENY *       FLURRIES  19  12  73 NW15G30   30.02S WCI   5
BOONE *        CLOUDY    18  10  73 NW22G29   29.99F WCI   0
CHARITON *     FLURRIES  19  10  68 NW17G28   30.01S WCI   4
DES MOINES     FLURRIES  20  10  65 NW24G39   30.02F WCI   3
GRINNELL*      LGT SNOW  16  14  93 NW22G29   29.96F WCI  -2
KNOXVILLE *    FLURRIES  18  10  73 NW22G30   29.98F WCI   0
MARSHALLTOWN   LGT SNOW  16  12  84 NW21      29.96F FOG     WCI  -1
NEWTON *       LGT SNOW  18  12  79 NW21G29   29.98F WCI   1
PELLA *        LGT SNOW  18  12  79 NW20G26   30.01F WCI   1
$$

IAZ004>006-015-016-023>025-035-036-090200-
   NORTH CENTRAL IOWA

CITY           SKY/WX    TMP DP  RH WIND       PRES   REMARKS
ALGONA *       CLOUDY    16  10  79 N31       29.98S WCI  -5
CLARION *      LGT SNOW  16  10  79 NW30G39   29.97S WCI  -4
ESTHERVILLE    MOCLDY    13   7  77 N28G36    30.02S WCI  -8
FORT DODGE *   CLOUDY    18   9  68 NW12G29   30.01F WCI   5
MASON CITY     LGT SNOW  15  10  80 NW30      29.95S WCI  -5
FOREST CITY *  LGT SNOW  16  10  79 NW26G33   29.95S WCI  -3
WEBSTER CITY * LGT SNOW  18  12  79 NW35G40   29.97F WCI  -3
IOWA FALLS *   CLOUDY    17  13  86 NW21      29.97S WCI   0
$$

IAZ007>011-017>019-026>030-037>042-050>054-066-090200-
   NORTHEAST IOWA

CITY           SKY/WX    TMP DP  RH WIND       PRES   REMARKS
CEDAR RAPIDS   LGT SNOW  16  11  80 NW18      29.91S WCI   0
CHARLES CITY * LGT SNOW  14  12  92 NW20G26   29.93R WCI  -3
CLINTON *      CLOUDY    19  13  77 NW22G28   29.85S WCI   2
DECORAH *      LGT SNOW  14  10  85 NW16G23   29.87S WCI  -2
DUBUQUE        CLOUDY    15   8  73 NW17      29.84R WCI  -1
MONTICELLO *   MOCLDY    16   9  73 NW14G23   29.88S WCI   1
OELWEIN *      LGT SNOW  14  10  85 NW16      29.90S WCI  -2
WATERLOO       LGT SNOW  15  10  80 NW21      29.93S WCI  -2
$$

IAZ064-065-067-068-078-090200-
   EAST CENTRAL IOWA

CITY           SKY/WX    TMP DP  RH WIND       PRES   REMARKS
DAVENPORT      CLOUDY    17   8  67 NW23G31   29.88S WCI  -1
IOWA CITY      CLOUDY    17   8  67 NW14G28   29.94F WCI   3
MT. PLEASANT * CLOUDY    21  12  68 NW14G22   29.95S WCI   8
MUSCATINE *    CLOUDY    19  10  68 NW15G24   29.94S WCI   5
QUAD CITIES    FLURRIES  18  11  74 NW17G29   29.88S WCI   3
$$

IAZ062-063-075>077-085>089-095>099-090200-
   SOUTHEAST IOWA

CITY           SKY/WX    TMP DP  RH WIND       PRES   REMARKS
BURLINGTON     CLOUDY    18   9  68 NW18G31   29.92S WCI   2
FAIRFIELD *    FLURRIES  18   9  68 NW25G32   29.95F WCI  -1
FORT MADISON * CLOUDY    18  12  79 NW21G30   29.94S WCI   1
KEOKUK *       CLOUDY    19  10  68 NW15G22   29.95S WCI   5
OSKALOOSA *    LGT SNOW  18  14  86 NW24G30   29.98F WCI   0
CENTERVILLE *  FLURRIES  18  14  86 NW13G23   30.01S WCI   4
OTTUMWA        LGT SNOW  17  12  80 NW22G29   29.98F WCI   0
WASHINGTON *   FLURRIES  18  10  73 NW18      29.95F WCI   2
$$

ABBREVIATIONS USED IN REMARKS
   TC - TEMPERATURES IN CELSIUS
  WCI - WIND CHILL INDEX
   HX - HEAT INDEX
  VSB - VISIBILITY
$$





USA.gov is the U.S. government's official web portal to all federal, state and local government web resources and services.